Mt. Lincoln Summit Weather observations

Data are for 10 minute period ending at time listed.
 Day   Time   Solar   Ave.   Ave.  Ave.  Vector    Max.   Stn.  
  of    of     Rad.   Air    Rel.  Wind   Wind     Wind   Baro.  
Year   Day            Temp.  Hum.  Speed  Dir.     Gust   Pres. 
2015   (PST)   W/m2    F      %     mph   deg.      mph    mb    
-----------------------------------------------------------------
 213   18:30  999.0    64   58.8     4    238.2     5.8   598.30
 213   18:40  999.0    63   58.7     4    244.0     5.2   597.30
 213   18:50  999.0    63   58.7     4    245.7     5.0   596.50
 213   19:00  999.0    62   58.5     4    243.3     5.0   595.50
 213   19:10  999.0    62   58.4     3    258.5     4.8   593.00
 213   19:20  999.0    61   58.3     3    251.4     4.6   592.30
 213   19:30  999.0    60   58.3     4    247.3     4.7   591.90
 213   19:40  999.0    60   58.3     3    246.3     4.6   594.20
 213   19:50  999.0    60   58.3     3    248.0     4.0   590.80
 213   20:00  999.0    59   58.2     3    236.8     3.9   591.10
 213   20:10  999.0    59   58.1     3    232.2     3.8   590.50
 213   20:20  999.0    58   58.2     3    248.0     3.9   587.80
 213   20:30  999.0    58   58.2     3    261.2     3.2   587.60
 213   20:40  999.0    59   58.3     3    259.9     3.5   586.80
 213   20:50  999.0    59   58.3     2    249.7     2.9   587.80
 213   21:00  999.0    59   58.3     2    249.4     2.6   586.90
 213   21:10  999.0    59   58.3     2    250.2     2.5   585.70
 213   21:20  999.0    60   58.6     2    249.5     2.8   583.50
 213   21:30  999.0    61   58.4     2    239.4     2.8   586.20
 213   21:40  999.0    60   57.8     2    223.2     2.8   585.40
 213   21:50  999.0    59   58.1     3    220.1     3.2   583.10
 213   22:00  999.0    60   58.4     3    219.9     3.0   584.20
 213   22:10  999.0    59   58.2     2    216.8     2.8   585.80
 213   22:20  999.0    60   58.5     3    214.3     3.1   587.50
 213   22:30  999.0    60   58.5     3    217.8     3.0   579.30
 213   22:40  999.0    60   58.5     3    217.2     3.1   581.40
 213   22:50  999.0    60   58.5     2    216.9     3.0   582.10
 213   23:00  999.0    60   58.3     2    203.7     2.3   579.20
 213   23:10  999.0    60   58.4     2    212.9     2.5   579.80
 213   23:20  999.0    60   58.4     2    219.8     2.6   584.60
 213   23:30  999.0    59   58.2     2    240.0     2.8   581.50
 213   23:40  999.0    59   58.1     3    248.1     3.6   578.50
 213   23:50  999.0    58   57.6     3    254.5     4.0   581.20
 214    0:00  999.0    56   57.5     4    299.9     4.8   579.60
 214    0:10  999.0    56   57.9     4    273.5     4.6   578.70
 214    0:20  999.0    57   57.9     3    257.4     4.4   579.80
 214    0:30  999.0    56   57.7     2    237.4     2.8   583.10
 214    0:40  999.0    56   57.6     2    216.5     2.9   579.50
 214    0:50  999.0    56   57.7     3    226.8     3.3   575.90
 214    1:00  999.0    56   57.8     3    226.8     3.7   577.30
 214    1:10  999.0    57   58.0     3    243.6     4.2   579.10
 214    1:20  999.0    57   58.0     4    245.5     4.1   578.90
 214    1:30  999.0    57   57.9     2    271.6     3.9   577.70
 214    1:40  999.0    57   57.9     2    269.2     3.9   574.40
 214    1:50  999.0    57   57.9     3    261.1     4.6   580.30
 214    2:00  999.0    57   57.8     2    259.9     3.5   575.20
 214    2:10  999.0    57   57.9     3    244.1     3.7   576.30
 214    2:20  999.0    57   57.8     4    229.7     4.6   578.70
 214    2:30  999.0    57   57.8     3    236.3     4.0   576.80
 214    2:40  999.0    57   57.8     4    231.8     4.6   575.90
 214    2:50  999.0    57   57.8     4    233.6     4.4   575.40
 214    3:00  999.0    57   57.8     4    233.2     5.1   579.90
 214    3:10  999.0    57   57.7     5    230.3     5.2   579.00
 214    3:20  999.0    57   57.8     4    234.8     4.6   575.80
 214    3:30  999.0    57   57.8     4    232.8     4.9   577.80
 214    3:40  999.0    57   57.7     4    233.6     5.1   576.30
 214    3:50  999.0    56   57.7     3    236.5     4.6   574.30
 214    4:00  999.0    56   57.7     4    232.6     4.2   575.30
 214    4:10  999.0    56   57.7     3    234.8     4.0   572.60
 214    4:20  999.0    56   57.7     3    234.1     3.8   572.10
 214    4:30  999.0    56   57.7     3    230.1     4.0   577.40
 214    4:40  999.0    56   57.7     3    232.8     3.9   572.40
 214    4:50  999.0    56   57.7     3    239.2     3.3   570.80
 214    5:00  999.0    56   57.8     3    248.7     3.3   577.60
 214    5:10  999.0    57   57.8     3    254.1     3.3   576.00
 214    5:20  999.0    57   57.8     2    257.6     3.0   576.50
 214    5:30  999.0    57   57.8     2    260.6     2.0   575.40
 214    5:40  999.0    58   58.0     2    233.0     2.2   576.80
 214    5:50  999.0    58   57.7     0    154.4     0.9   574.00
 214    6:00  999.0    57   57.1     1    120.9     1.8   576.40
 214    6:10  999.0    57   57.3     1    134.3     1.5   578.00
 214    6:20  999.0    57   57.5     1    158.5     1.1   575.30
 214    6:30  999.0    58   57.6     1    183.6     1.7   570.80
 214    6:40  999.0    58   57.5     1    202.6     1.8   573.50
 214    6:50  999.0    58   57.3     1    217.1     2.1   573.30
 214    7:00  999.0    58   57.3     1    220.5     2.0   573.20
 214    7:10  999.0    58   57.3     1    220.6     1.5   572.40
 214    7:20  999.0    58   57.3     1    217.6     1.6   572.40
 214    7:30  999.0    59   57.2     1    216.1     1.4   575.60
 214    7:40  999.0    59   57.2     1    201.1     1.7   574.60
 214    7:50  999.0    60   57.1     1    197.3     1.9   577.70
 214    8:00  999.0    61   57.0     2    171.0     3.0   575.70
 214    8:10  999.0    62   56.7     2    162.4     3.0   575.60
 214    8:20  999.0    62   56.5     2    177.0     3.7   577.90
 214    8:30  999.0    63   56.4     4    126.8     4.6   577.80
 214    8:40  999.0    64   56.7     3    108.2     3.7   580.80
 214    8:50  999.0    65   56.8     2    102.6     3.7   578.10
 214    9:00  999.0    64   56.6     2    110.7     2.7   577.70
 214    9:10  999.0    63   56.2     2    216.4     3.7   578.10
 214    9:20  999.0    62   56.2     1    190.9     2.7   577.50
 214    9:30  999.0    64   56.5     1    188.8     2.1   577.00
 214    9:40  999.0    65   56.3     1    189.5     2.5   574.50
 214    9:50  999.0    65   55.9     2    196.9     2.9   574.60
 214   10:00  999.0    64   55.5     1    214.5     2.4   578.20
 214   10:10  999.0    63   55.3     2    215.9     2.8   580.60
 214   10:20  999.0    62   55.4     2    220.4     3.3   581.30
 214   10:30  999.0    59   55.8     3    227.1     3.9   578.50
 214   10:40  999.0    58   56.7     3    230.5     3.9   582.60
 214   10:50  999.0    58   57.0     3    223.7     3.5   581.30
 214   11:00  999.0    60   57.0     3    220.3     3.4   582.60
 214   11:10  999.0    61   56.8     3    222.5     4.6   583.30
 214   11:20  999.0    62   56.4     3    242.4     5.1   583.20
 214   11:30  999.0    62   57.0     2    278.9     3.5   580.80
 214   11:40  999.0    63   57.4     2    279.0     2.6   580.00
 214   11:50  999.0    64   57.1     2    235.1     3.5   585.00
 214   12:00  999.0    63   56.5     2    242.9     4.2   586.20
 214   12:10  999.0    62   57.2     2    242.5     3.5   586.10
 214   12:20  999.0    62   57.4     1    280.8     2.5   585.40
 214   12:30  999.0    62   57.6     1    275.8     2.3   586.30
 214   12:40  999.0    63   57.7     2    310.8     3.7   588.50
 214   12:50  999.0    64   57.8     1    316.8     1.8   587.50
 214   13:00  999.0    64   57.8     1    335.2     3.2   588.00
 214   13:10  999.0    64   57.6     1    345.5     3.5   590.30
 214   13:20  999.0    64   57.4     0     24.2     0.3   590.80
 214   13:30  999.0    64   57.0     0     78.6     0.3   592.10
 214   13:40  999.0    62   56.4     2    194.6     8.1   592.30
 214   13:50  999.0    62   57.2     8    199.9    13.3   593.00
 214   14:00  999.0    63   57.2     2    273.9     8.2   590.30
 214   14:10  999.0    63   57.3     4    275.7    12.2   591.50
 214   14:20  999.0    64   57.7     2    324.4     4.3   590.60
 214   14:30  999.0    65   57.2     2    260.9    11.7   592.10
 214   14:40  999.0    64   57.0     4    276.9     8.0   592.10
 214   14:50  999.0    63   57.3     1    292.5     8.2   590.50
 214   15:00  999.0    63   57.3     3    284.7     7.1   593.30
 214   15:10  999.0    64   57.7     5    286.3     8.0   592.30
 214   15:20  999.0    65   57.8    10    263.4    18.8   594.60
 214   15:30  999.0    64   57.8    10    261.1    19.1   594.60
 214   15:40  999.0    65   58.0     9    276.9    16.4   593.50
 214   15:50  999.0    65   57.8     6    261.9    14.5   594.20
 214   16:00  999.0    65   57.7    10    236.2    18.6   594.00
 214   16:10  999.0    65   57.7    11    244.9    21.6   598.90
 214   16:20  999.0    64   57.4     8    262.7    19.5   600.80
 214   16:30  999.0    64   57.7     5    248.0    14.2   597.50
 214   16:40  999.0    64   57.7     6    283.2    15.2   596.10
 214   16:50  999.0    64   57.7     1    208.4     7.8   594.30
 214   17:00  999.0    64   57.3     4    286.0    11.0   594.60
 214   17:10  999.0    63   57.0     1    298.3     7.0   593.20
 214   17:20  999.0    63   57.1     1    323.1     3.5   594.50
 214   17:30  999.0    63   57.4     1    278.6     6.2   592.40
 214   17:40  999.0    62   57.3     0    307.6     1.8   593.70
 214   17:50  999.0    62   57.3     3    300.6     9.3   594.10
 214   18:00  999.0    61   57.3     4    313.1     7.9   593.00
 214   18:10  999.0    61   57.3     1    294.4     3.5   596.10
 214   18:20  999.0    60   57.2     2    296.9     6.9   594.60

Return to Mt. Lincoln graphs page.


Western Regional Climate Center,wrcc@dri.edu